Simultaneous Nadir Overpasses (SNOs) Predictions

Prediction of SNOs between NPP and METOP-C Satellite Orbit:

Table of predicted SNOs for the next 14.0 days since TLE Epoch: 1/29/2023
Index Date (NPP) Time (NPP) Lat,Lon (NPP) SZA (NPP ) Date (METOP-C) Time (METOP-C) Lat,Lon (METOP-C) SZA (METOP-C ) Distance(km) Time Diff (sec)
1 02/11/2023 05:12:40 73.48, 92.43 87.90 02/11/2023 05:13:47 73.45, 95.04 87.72 82.55 67
2 02/11/2023 06:03:23 -73.41,-100.10 92.19 02/11/2023 06:04:31 -73.39, -97.78 92.36 73.94 68
3 02/11/2023 06:54:04 73.18, 67.72 87.55 02/11/2023 06:55:15 73.13, 68.99 87.41 41.04 71
4 02/11/2023 07:44:47 -73.12,-124.82 92.54 02/11/2023 07:45:59 -73.07,-123.82 92.66 32.68 72
5 02/11/2023 08:35:28 72.88, 42.99 87.19 02/11/2023 08:36:42 72.86, 43.07 87.15 3.50 74
6 02/11/2023 09:26:12 -72.87,-149.66 92.84 02/11/2023 09:27:25 -72.85,-149.63 92.88 2.48 73
7 02/11/2023 10:16:57 72.84, 17.72 87.12 02/11/2023 10:18:04 72.84, 17.68 87.11 1.12 67
8 02/11/2023 11:07:41 -72.83,-174.94 92.91 02/11/2023 11:08:47 -72.83,-175.01 92.92 2.41 66
9 02/11/2023 11:58:27 72.84, -7.67 87.10 02/11/2023 11:59:26 72.82, -7.70 87.07 2.58 59
10 02/11/2023 12:49:11 -72.83, 159.67 92.93 02/11/2023 12:50:09 -72.81, 159.61 92.96 2.91 58
11 02/11/2023 13:39:57 72.85, -33.05 87.08 02/11/2023 13:40:47 72.85, -32.97 87.07 2.68 50
12 02/11/2023 14:30:41 -72.84, 134.29 92.95 02/11/2023 14:31:30 -72.84, 134.33 92.95 1.76 49
13 02/11/2023 15:21:27 72.85, -58.43 87.07 02/11/2023 15:22:09 72.83, -58.35 87.03 3.46 42
14 02/11/2023 16:12:11 -72.84, 108.91 92.97 02/11/2023 16:12:52 -72.83, 108.95 92.99 2.23 41
15 02/11/2023 17:02:56 72.81, -83.71 86.99 02/11/2023 17:03:31 72.81, -83.73 86.99 1.04 35
16 02/11/2023 17:53:40 -72.79, 83.63 93.04 02/11/2023 17:54:14 -72.81, 83.57 93.03 2.26 34
17 02/11/2023 18:44:26 72.81,-109.10 86.97 02/11/2023 18:44:53 72.79,-109.11 86.95 1.97 27
18 02/11/2023 19:35:10 -72.80, 58.24 93.06 02/11/2023 19:35:36 -72.79, 58.19 93.07 2.13 26
19 02/11/2023 20:25:56 72.82,-134.48 86.96 02/11/2023 20:26:14 72.83,-134.39 86.96 3.23 18
20 02/11/2023 21:16:40 -72.80, 32.86 93.08 02/11/2023 21:16:57 -72.82, 32.92 93.07 2.53 17
21 02/11/2023 22:07:26 72.82,-159.86 86.94 02/11/2023 22:07:36 72.81,-159.77 86.92 3.56 10
22 02/11/2023 22:58:10 -72.81, 7.48 93.09 02/11/2023 22:58:19 -72.80, 7.54 93.11 2.27 9
23 02/11/2023 23:48:55 72.77, 174.86 86.86 02/11/2023 23:48:58 72.79, 174.85 86.87 1.31 3
24 02/12/2023 00:39:39 -72.76, -17.80 93.17 02/12/2023 00:39:41 -72.78, -17.84 93.15 2.35 2
25 02/12/2023 01:30:25 72.78, 149.47 86.85 02/12/2023 01:30:20 72.77, 149.47 86.83 1.41 5



Historial Predications of SNOs between NPP and METOP-C
